This is the latest recevied weather packets stored in our database for station/object W6MAF. If no packets are shown the sender has not sent any weather packets the latest 10 day(s).
| Time | Temp. | Humidity | Pressure | Rain* | Wind** | Luminosity | Snow |
|---|---|---|---|---|---|---|---|
| 1788305520 | 25° C | 5% | - | 0 mm | 6.26 m/s, 181° | - | - |
| 1788305222 | 25° C | 5% | - | 0 mm | 8.94 m/s, 190° | - | - |
| 1788304924 | 25° C | 5% | - | 0 mm | 9.83 m/s, 179° | - | - |
| 1788304624 | 25° C | 5% | - | 0 mm | 10.73 m/s, 176° | - | - |
| 1788304326 | 25° C | 5% | - | 0 mm | 8.49 m/s, 186° | - | - |
| 1788304028 | 25.56° C | 5% | - | 0 mm | 10.28 m/s, 173° | - | - |
| 1788303731 | 25.56° C | 5% | - | 0 mm | 9.83 m/s, 204° | - | - |
| 1788303432 | 25.56° C | 5% | - | 0 mm | 9.83 m/s, 198° | - | - |
| 1788303139 | 25.56° C | 5% | - | 0 mm | 9.83 m/s, 165° | - | - |
| 1788302834 | 25° C | 6% | - | 0 mm | 9.39 m/s, 156° | - | - |
| 1788302536 | 25.56° C | 5% | - | 0 mm | 8.94 m/s, 191° | - | - |
| 1788302238 | 25.56° C | 5% | - | 0 mm | 8.49 m/s, 153° | - | - |
| 1788301940 | 25.56° C | 5% | - | 0 mm | 11.18 m/s, 195° | - | - |
| 1788301643 | 25.56° C | 5% | - | 0 mm | 8.49 m/s, 197° | - | - |
| 1788301345 | 25.56° C | 5% | - | 0 mm | 10.73 m/s, 186° | - | - |
| 1788301044 | 25.56° C | 5% | - | 0 mm | 8.05 m/s, 198° | - | - |
| 1788300746 | 25.56° C | 5% | - | 0 mm | 9.39 m/s, 191° | - | - |
| 1788300448 | 25.56° C | 5% | - | 0 mm | 7.15 m/s, 183° | - | - |
| 1788300151 | 25.56° C | 5% | - | 0 mm | 10.73 m/s, 197° | - | - |
| 1788299853 | 25.56° C | 5% | - | 0 mm | 7.6 m/s, 183° | - | - |
| 1788299555 | 25.56° C | 5% | - | 0 mm | 8.49 m/s, 184° | - | - |
| 1788299254 | 25.56° C | 5% | - | 0 mm | 8.49 m/s, 170° | - | - |
| 1788298956 | 25.56° C | 5% | - | 0 mm | 7.6 m/s, 211° | - | - |
| 1788298659 | 25.56° C | 5% | - | 0 mm | 10.28 m/s, 201° | - | - |
| 1788298441 | 25.56° C | 5% | - | 0 mm | 10.73 m/s, 176° | - | - |
* Rain latest hour (hover to see other rain measurements)
** Current wind speed in m/s (hover to see current wind gust speed)